Probability
0 0 0 0 0 0 0 0 0 0 0 0 0 0 0 0 0 0 0 0 0 0 0 0 0 0 0 0 0 2 17 31 22 8 5 5 4 1 0 0 0 0 0
0 0 0 0 0 0 0 0 0 0 0 0 0 0 0 0 0 0 0 0 0 0 0 0 0 0 0 0 0 2 20 36 32 21 21 19 12 4 0 0 0 0 0
0 0 0 0 0 0 0 0 0 0 0 0 0 0 0 0 0 0 0 0 0 0 0 0 0 0 0 1 2 3 19 34 34 40 53 50 38 22 9 2 2 1 1
0 0 0 0 0 0 0 0 0 0 0 0 0 0 0 0 0 0 0 0 0 0 0 0 0 0 0 2 4 4 14 22 23 40 70 80 73 59 32 12 8 8 6
0 0 0 0 0 0 0 1 1 0 0 0 0 0 0 0 0 0 0 0 0 0 0 0 0 1 2 4 9 12 15 15 12 24 56 81 91 88 64 33 21 17 8
0 0 0 0 0 0 0 1 1 0 0 0 0 0 0 0 0 0 0 0 0 0 0 0 1 3 5 8 15 27 34 24 11 11 34 66 89 96 83 57 37 22 13
0 0 0 0 0 0 0 1 1 0 0 0 0 0 0 0 0 0 0 0 1 1 0 1 2 5 9 13 23 42 54 38 14 5 19 51 81 96 93 77 57 44 41
0 0 0 0 0 0 0 0 0 0 0 0 0 0 0 0 0 0 0 1 2 2 1 1 4 9 14 18 25 39 48 32 11 3 8 29 65 91 98 92 83 81 82
0 0 0 0 0 0 0 0 0 0 0 0 0 0 0 0 0 0 0 1 3 4 5 4 7 15 23 21 18 21 22 13 4 2 2 9 42 82 100 99 99 99 100
0 0 0 0 0 0 0 0 0 0 0 0 0 0 0 0 0 0 0 1 4 9 11 10 12 19 23 16 8 5 4 2 0 1 0 2 29 76 100 100 100 100 100
0 0 0 0 0 0 0 0 0 0 0 0 0 0 0 0 0 0 0 1 4 10 14 14 15 14 10 5 2 1 0 0 0 0 0 7 38 81 100 100 100 100 100
0 0 0 0 0 0 0 0 0 0 0 0 0 0 0 0 0 0 0 0 2 4 8 10 10 7 2 0 0 0 1 1 0 0 0 18 60 92 100 100 100 100 100
0 0 0 0 0 0 0 0 0 0 0 0 0 0 0 0 0 0 0 0 0 0 2 3 3 2 1 0 0 0 1 1 0 0 0 20 64 94 100 100 100 100 100
0 0 0 0 0 0 0 0 0 0 0 0 0 0 0 0 0 0 0 0 0 0 0 0 0 0 0 0 0 0 0 0 0 0 0 11 45 84 100 100 100 100 100
0 0 0 0 0 0 0 0 0 0 0 0 0 0 0 0 0 0 0 0 0 0 0 0 0 0 0 0 0 0 0 0 0 0 0 2 22 63 92 100 100 100 100
0 0 0 0 0 0 0 0 0 0 0 0 0 0 0 0 0 0 0 0 0 0 0 0 0 0 0 0 0 0 0 0 0 0 0 0 7 31 67 91 99 100 100
0 0 0 0 0 0 0 0 0 0 0 0 0 0 0 0 0 0 0 0 0 0 0 0 0 0 0 0 0 0 0 0 0 0 0 0 0 7 29 63 87 98 100
0 0 0 0 0 0 0 0 0 0 0 0 0 0 0 0 0 0 0 0 0 0 0 0 0 0 0 0 0 0 0 0 0 0 0 0 0 0 6 26 54 77 90
0 0 0 0 0 0 0 0 0 0 0 0 0 0 0 0 0 0 0 0 0 0 0 0 0 0 0 0 0 0 0 0 0 0 0 0 0 0 0 5 16 36 57
0 0 0 0 0 0 0 0 0 0 0 0 0 0 0 0 0 0 0 0 0 0 0 0 0 0 0 0 0 0 0 0 0 0 0 0 0 0 0 0 0 7 16
0 0 0 0 0 0 0 0 0 0 0 0 0 0 0 0 0 0 0 0 0 0 0 0 0 0 0 0 0 0 0 0 0 0 0 0 0 0 0 0 0 0 0
0 0 0 0 0 0 0 0 0 0 0 0 0 0 0 0 0 0 0 0 0 0 0 0 0 0 0 0 0 0 0 0 0 0 0 0 0 0 0 0 0 0 0
0 0 0 0 0 0 0 0 0 0 0 0 0 0 0 0 0 0 0 0 0 0 0 0 0 0 0 0 0 0 0 0 0 0 0 0 0 0 0 0 0 0 0
0 0 0 0 0 0 0 0 0 0 0 0 0 0 0 0 0 0 0 0 0 0 0 0 0 0 0 0 0 0 0 0 0 0 0 0 0 0 0 0 0 0 0
0 0 0 0 0 0 0 0 0 0 0 0 0 0 0 0 0 0 0 0 0 0 0 0 0 0 0 0 0 0 0 0 0 0 0 0 0 0 0 0 0 0 0
0 0 0 0 0 0 0 0 0 0 0 0 0 0 0 0 0 0 0 0 0 0 0 0 0 0 0 0 0 0 0 0 0 0 0 0 0 0 0 0 0 0 0
Wind_Speed
6 3 4 4 4 4 4 5 6 6 6 6 5 5 5 5 6 6 6 6 6 7 8 9 10 9 10 10 10 7 6 7 7 6 7 6 7 9 11 11 11 8 13
5 3 4 4 3 3 5 6 7 6 5 6 7 7 8 8 8 8 8 8 8 9 10 11 11 10 10 10 11 8 7 7 7 7 8 7 7 10 12 13 12 11 15
8 7 7 9 6 5 7 7 5 5 6 8 9 10 10 11 11 11 10 8 9 11 11 11 12 12 10 9 12 10 9 8 8 8 8 5 6 11 14 13 15 16 17
9 8 7 10 11 11 11 8 4 6 8 10 11 13 13 13 13 12 12 10 11 12 13 13 12 12 11 9 11 10 10 9 9 8 5 4 6 12 15 15 17 17 17
12 10 12 14 13 13 15 14 10 8 8 10 12 14 15 15 14 13 12 11 12 13 14 14 14 12 11 10 10 10 10 10 10 7 5 5 6 12 18 18 17 18 17
12 11 14 19 19 17 16 17 17 15 15 13 13 15 16 15 14 13 13 13 13 14 15 15 15 13 11 11 10 9 12 13 10 6 5 7 7 12 19 18 17 17 17
9 9 11 19 21 21 20 20 20 21 20 18 17 16 17 17 16 16 15 14 14 15 16 16 14 12 11 11 11 10 13 13 9 5 5 7 8 14 19 20 19 19 19
7 8 8 13 17 19 20 23 22 21 20 19 18 18 18 18 19 18 17 16 15 16 16 16 14 12 11 11 11 11 13 13 9 8 7 6 9 15 19 19 19 20 21
7 8 8 7 10 13 16 20 23 25 25 23 20 17 16 16 18 19 18 16 16 16 16 16 14 12 11 12 12 11 13 14 10 7 7 5 11 19 19 18 19 20 20
7 7 7 7 7 7 8 15 19 22 24 24 21 17 15 13 14 16 15 14 16 16 17 17 15 14 13 12 12 12 14 12 9 7 6 6 13 20 21 20 20 20 20
8 7 7 7 8 7 8 12 14 17 19 18 16 18 14 8 9 10 11 14 17 16 17 18 17 16 14 11 12 13 12 7 8 6 6 9 15 20 21 21 21 22 22
10 8 7 7 7 6 6 7 7 8 10 10 9 11 10 11 10 11 11 13 15 16 17 18 18 16 10 6 7 10 8 8 7 7 7 12 17 21 21 21 22 23 24
5 6 6 5 5 4 4 4 4 5 6 8 10 11 9 10 10 11 10 8 8 9 8 10 11 9 7 7 7 7 8 8 6 6 7 13 19 22 22 23 23 25 25
5 6 7 7 6 6 5 4 5 5 5 5 8 11 10 8 10 11 11 13 11 7 7 7 8 10 10 10 10 11 11 9 7 6 9 14 18 21 23 25 25 26 26
3 4 6 6 5 5 5 5 7 6 5 5 5 7 9 9 10 10 10 11 12 12 10 9 10 11 10 11 12 13 13 12 11 9 7 13 16 18 22 26 28 28 28
4 4 5 5 5 6 5 6 7 7 8 8 6 6 8 8 9 10 9 11 11 12 14 14 12 12 12 11 13 14 12 11 11 11 8 9 15 16 21 25 28 30 31
3 3 5 5 5 5 5 7 7 9 9 8 7 6 7 8 11 11 8 8 9 10 12 14 17 13 13 13 14 14 12 12 12 12 10 7 9 13 18 23 27 29 31
4 4 6 6 6 8 7 9 9 10 11 11 9 8 9 11 14 11 9 9 7 9 9 10 12 14 13 13 12 12 12 11 13 13 10 9 8 7 9 16 23 27 31
5 4 5 5 7 10 10 10 9 9 9 9 9 11 14 17 17 14 11 10 8 7 8 8 11 11 14 13 12 13 13 11 12 11 12 12 10 9 8 9 11 16 25
4 4 4 4 7 8 7 7 8 9 9 9 10 11 14 14 17 16 13 12 10 9 8 8 9 12 10 14 12 13 13 12 11 11 13 14 13 13 11 9 8 4 16
5 5 5 7 8 6 6 8 10 12 11 10 10 14 15 16 16 16 14 13 11 10 10 9 8 13 11 9 14 15 15 13 12 11 10 12 14 13 13 10 9 6 7
4 5 7 6 5 4 5 6 7 9 10 11 11 13 15 16 16 16 16 14 13 11 12 9 7 9 11 9 9 14 11 12 15 12 11 11 11 9 8 8 11 9 8
4 4 5 6 5 5 5 6 8 11 12 10 11 12 13 16 17 18 21 18 17 14 11 10 8 9 10 13 9 11 8 9 11 11 13 11 11 11 9 8 12 14 7
3 4 5 6 5 5 5 5 7 10 13 13 12 13 15 15 16 17 20 20 16 13 12 9 10 8 9 11 11 16 18 16 12 8 10 11 11 11 11 9 10 15 16
3 4 5 7 5 4 4 4 6 8 11 12 12 15 15 14 14 15 17 17 16 14 14 12 11 10 8 11 13 15 15 19 17 16 12 12 11 9 10 12 10 10 14
4 4 5 7 5 4 5 5 5 9 12 13 16 16 13 12 11 13 17 17 17 16 15 13 13 11 10 11 13 15 14 15 15 18 19 19 15 10 9 10 14 12 12
Wind_Direction
337 344 303 263 225 205 190 190 192 187 179 191 197 211 243 269 277 277 279 280 282 288 288 288 289 288 283 282 268 248 228 204 198 173 169 163 161 160 160 156 157 155 152
325 6 4 337 303 272 256 225 206 204 211 231 240 228 226 236 248 261 263 262 268 273 278 282 281 280 279 285 285 243 221 198 191 180 168 163 165 162 164 159 155 156 153
8 21 15 17 8 324 291 260 227 228 240 250 255 250 240 238 241 245 254 254 260 269 272 272 277 277 275 275 285 250 215 201 202 188 170 165 162 161 163 158 152 154 153
15 17 13 17 10 359 343 318 265 235 249 256 257 259 256 251 249 248 254 251 253 261 268 268 267 270 271 266 277 253 221 210 210 190 170 169 174 164 156 156 152 153 155
15 11 10 12 9 1 351 344 343 311 267 255 258 265 266 259 255 258 255 258 254 257 262 267 267 263 263 261 265 255 225 216 210 194 180 178 183 168 159 162 161 160 158
10 358 3 12 16 14 4 358 353 347 332 308 283 269 267 270 271 265 258 254 254 256 261 261 265 265 259 255 253 245 221 213 205 200 190 187 185 176 168 170 166 165 159
11 351 358 7 14 20 21 13 0 352 342 331 317 300 283 273 268 263 260 255 254 256 260 262 262 263 261 257 247 233 217 205 196 197 200 192 195 186 177 176 175 167 160
12 357 1 5 9 14 17 14 7 0 351 340 331 324 306 287 276 268 262 257 255 256 257 257 258 253 246 247 244 225 210 202 194 198 206 199 197 194 181 179 173 165 162
11 8 359 356 6 9 13 11 8 3 356 348 336 323 315 303 285 270 262 256 255 256 253 250 246 246 245 242 239 221 206 202 199 204 202 200 201 198 188 180 173 168 165
11 12 4 359 4 359 4 6 5 2 356 349 339 325 313 307 298 283 267 257 258 258 255 247 240 237 241 242 239 218 207 198 202 201 197 197 206 201 194 185 176 171 168
9 4 3 7 6 357 2 359 357 357 354 348 342 336 327 314 311 301 280 252 248 250 254 251 240 233 236 238 238 222 206 200 196 200 201 194 201 201 194 189 181 175 172
3 353 358 3 359 352 357 353 348 348 345 338 336 336 335 332 326 314 295 273 258 249 249 251 246 237 231 222 228 223 208 203 195 196 198 195 198 198 196 190 184 179 174
351 347 341 342 340 340 336 338 336 339 338 334 336 338 342 337 337 336 330 308 283 267 258 252 243 233 224 217 214 215 208 201 202 196 197 199 199 196 197 191 186 181 176
359 351 344 340 334 332 331 337 335 337 334 333 335 335 338 343 346 340 338 337 322 290 266 253 242 231 222 219 219 217 211 201 202 202 201 198 203 200 198 194 187 183 178
360 344 334 330 327 330 341 345 343 334 323 317 328 332 333 340 338 332 333 331 325 324 297 257 247 241 231 223 225 220 213 206 203 206 205 201 203 206 203 198 191 188 181
350 337 321 329 328 340 350 349 344 336 332 327 317 319 328 328 322 317 325 324 322 332 334 315 272 246 237 226 225 218 213 209 203 205 204 202 205 208 208 205 196 189 183
352 337 319 341 347 348 352 353 346 339 332 321 307 305 309 314 316 307 308 313 313 317 321 324 317 275 246 232 228 223 218 211 207 205 204 197 206 214 210 205 199 191 185
24 352 324 340 355 1 4 1 350 341 333 325 319 319 316 317 312 298 297 296 293 306 311 318 315 311 272 241 227 223 220 212 211 207 206 201 199 202 204 204 203 195 188
28 356 327 333 4 10 3 356 346 335 328 321 320 323 322 320 313 298 293 289 286 292 295 306 306 305 304 270 236 222 219 212 210 203 207 206 199 195 188 196 203 201 197
27 8 340 346 15 11 357 349 341 334 332 326 322 317 313 310 308 301 292 284 285 279 280 289 301 289 294 304 275 228 209 209 204 199 203 208 205 201 190 187 205 199 210
23 13 349 9 4 355 354 353 345 337 333 325 321 319 318 312 310 308 303 292 282 268 267 272 291 291 285 290 302 248 203 196 198 194 184 197 193 192 186 177 203 170 175
14 9 2 359 331 340 356 347 338 329 321 321 322 318 314 310 310 306 300 299 287 273 269 263 270 279 285 271 289 284 205 184 197 196 182 187 174 158 154 161 176 154 142
11 356 351 337 325 340 354 343 338 330 327 324 320 315 309 309 310 309 299 289 283 276 264 262 262 259 276 281 261 278 268 204 170 191 190 187 175 167 160 169 175 160 135
338 329 334 324 316 336 349 346 337 331 321 314 311 309 308 309 304 298 294 287 286 276 258 256 258 252 258 273 275 265 281 281 176 166 188 182 177 171 171 172 181 163 153
304 309 317 306 300 316 335 340 333 310 303 304 306 305 303 304 298 296 298 306 308 298 275 252 250 230 221 253 256 263 272 290 213 176 174 174 181 178 180 171 173 160 150
286 297 299 282 282 313 339 329 299 295 302 307 308 304 305 306 299 302 301 296 295 296 294 267 249 239 236 248 256 244 241 276 235 186 182 181 182 181 182 177 173 155 151